FENGYUN 1C DEB, 32126

Orbit data source: Space-Track

FENGYUN 1C DEB, 32126 is space debris in SSO originally from a launch on Mon, 10 May 1999 UTC launched from the Taiyaun Space Center, China (TSC). Fengyun 1C debris stems from the Chinese weather satellite Fengyun-1C, which was intentionally destroyed by a Chinese anti-satellite missile in 2007. This event dramatically increased the amount of space debris, with thousands of trackable fragments posing hazards to satellites and human spaceflight. The Fengyun 1C debris cloud has become a focal point in discussions about space sustainability and the need for international regulations to prevent the creation of new debris.

Loading next visibility...
Identifier
32126, 1999-025CRU
Orbit
SSO
Country
Flag of CNCN / PRC
Related business
Manufacturer
Unknown
Mission
Spacecraft
Bus & Motor
Unknown
Mass
Unknown
Launch date (UTC)
1999-05-10 (27 years ago)
Launch vehicle
Unknown
Launch site
Taiyaun Space Center, China (TSC)
Object type
Payload
Rocket body
Debris
Shape & HBR
Unknown shape, 0.1 m
Radar Cross Section
Small (<0.1 m²)

Expand to show TLE details & history
Last TLE update: 5 days ago

TLE from 5 days ago
0 FENGYUN 1C DEB
1 32126U 99025CRU 26250.37763512  .00000526  00000-0  61783-3 0  9999
2 32126  99.0843 111.6527 0279662 286.5045  70.5543 13.57253839653581
Epoch: 2026-09-07T09:03Z
TLE epoch observation values (Epoch: 2026-09-07T09:03:47.674Z)
Latitude
0.00004°
Longitude
-10.75522°
Altitude
984.612 km
Speed
7.391 km/s
True Right ascension
07h 26m 36s
True Declination
0° 00' 00"
Sunlit
Object was in daylight at epoch
Visualization orbit readout
Latitude
Unknown
Longitude
Unknown
Altitude
Unknown
Speed
Unknown
Apparent Right ascension
Unknown
Apparent Declination
Unknown
Sunlit
N/A
Visualization observer readout
Local Sidereal Time
09:33:06
Azimuth
Unknown
Elevation
Unknown
Doppler factor
Unknown
Orbital elements
Apogee altitude
1,250.486 km
Perigee altitude
835.407 km
Semi-major axis
7,421.084 km
Eccentricity
0.02797
Inclination
99.0843°
RAAN
111.6527°
Arg. of periapsis
286.5045°
True anomaly
73.6103°
Mean anomaly
70.5543°
Eccentric anomaly
72.0789°
Mean motion
3.39502 °/min
Orbital period
106.04 mins
BSTAR
0.00061783
Loading maneuver chart data...
Computing Atmospheric mass density...
Loading historical data...
Loading historical data...
Loading historical data...
Loading historical data...
Loading historical data...
Loading historical data...
Loading historical data...

Documentation

Showing up to 5 results
|